This is the latest recevied weather packets stored in our database for station/object K9JWM. If no packets are shown the sender has not sent any weather packets the latest 10 day(s).
| Time | Temp. | Humidity | Pressure | Rain* | Wind** | Luminosity | Snow |
|---|---|---|---|---|---|---|---|
| 1777610830 | 0.56° C | 75% | 1018.4 hPa | 0 mm | - | - | - |
| 1777609930 | 0.56° C | 75% | 1018.4 hPa | 0 mm | - | - | - |
| 1777609028 | 1.11° C | 74% | 1018.5 hPa | 0 mm | - | - | - |
| 1777608130 | 1.11° C | 74% | 1018.5 hPa | 0 mm | - | - | - |
| 1777607230 | 1.11° C | 73% | 1018.6 hPa | 0 mm | - | - | - |
| 1777606329 | 1.11° C | 72% | 1018.6 hPa | 0 mm | - | - | - |
| 1777605429 | 1.67° C | 70% | 1018.6 hPa | 0 mm | - | - | - |
| 1777604529 | 1.67° C | 70% | 1018.7 hPa | 0 mm | - | - | - |
| 1777603630 | 1.67° C | 71% | 1018.7 hPa | 0 mm | - | - | - |
| 1777602729 | 1.67° C | 71% | 1018.7 hPa | 0 mm | - | - | - |
| 1777601829 | 1.67° C | 70% | 1018.4 hPa | 0 mm | - | - | - |
| 1777600929 | 2.22° C | 70% | 1018.4 hPa | 0 mm | - | - | - |
| 1777600029 | 2.22° C | 70% | 1018.5 hPa | 0 mm | - | - | - |
| 1777599130 | 2.22° C | 68% | 1018.5 hPa | 0 mm | - | - | - |
| 1777598229 | 2.22° C | 67% | 1018.4 hPa | 0 mm | - | - | - |
| 1777597331 | 2.78° C | 67% | 1018.2 hPa | 0 mm | - | - | - |
| 1777596432 | 2.78° C | 64% | 1018.1 hPa | 0 mm | - | - | - |
| 1777595531 | 3.33° C | 66% | 1018.3 hPa | 0 mm | - | - | - |
| 1777594631 | 3.33° C | 65% | 1018.1 hPa | 0 mm | - | - | - |
| 1777593731 | 3.33° C | 63% | 1018 hPa | 0 mm | - | - | - |
| 1777592831 | 3.33° C | 64% | 1018 hPa | 0 mm | - | - | - |
| 1777591931 | 3.33° C | 63% | 1018 hPa | 0 mm | - | - | - |
| 1777591031 | 3.89° C | 63% | 1018 hPa | 0 mm | - | - | - |
| 1777590130 | 3.89° C | 63% | 1017.9 hPa | 0 mm | - | - | - |
| 1777589230 | 3.89° C | 62% | 1017.9 hPa | 0 mm | - | - | - |
* Rain latest hour (hover to see other rain measurements)
** Current wind speed in m/s (hover to see current wind gust speed)